FW0225 Weather Reports


Display with metric or nautical units.
time (UTC)temp
F
wind
direction
speed
MPH
gust
MPH
rain 1hr
in
rain 24hr
in
rain mn
in
humidity
%
barometer
mb
20260504223550 52 222 0.0 1.0 0.00 0.00 0.00 83 1016.5
20260504223020 52 222 0.0 0.0 0.00 0.00 0.00 83 1016.5
20260504222523 52 222 0.0 0.0 0.00 0.00 0.00 83 1016.5
20260504222022 53 222 0.0 0.0 0.00 0.00 0.00 82 1016.5
20260504221524 53 222 0.0 1.0 0.00 0.00 0.00 83 1016.5
20260504221045 53 222 0.0 1.0 0.00 0.00 0.00 82 1016.5
20260504220548 53 222 0.0 1.0 0.00 0.00 0.00 82 1016.5
20260504220019 53 222 0.0 1.0 0.00 0.00 0.00 82 1016.5
20260504215543 53 222 0.0 1.0 0.00 0.00 0.00 82 1016.5
20260504215022 53 222 0.0 1.0 0.00 0.00 0.00 82 1016.6
20260504214526 54 222 0.0 1.0 0.00 0.00 0.00 83 1016.5
20260504214026 54 222 0.0 1.0 0.00 0.00 0.00 82 1016.6
20260504213530 54 222 0.0 0.0 0.00 0.00 0.00 83 1016.5
20260504213023 54 222 0.0 0.0 0.00 0.00 0.00 82 1016.5
20260504212526 54 222 0.0 0.0 0.00 0.00 0.00 82 1016.5
20260504212031 54 222 0.0 1.0 0.00 0.00 0.00 82 1016.6
20260504211533 55 222 0.0 1.0 0.00 0.00 0.00 82 1016.5
20260504211031 55 222 0.0 0.0 0.00 0.00 0.00 82 1016.5
20260504210515 55 222 0.0 0.0 0.00 0.00 0.00 82 1016.6
20260504210028 55 222 0.0 1.0 0.00 0.00 0.00 82 1016.6
20260504205533 55 222 0.0 1.0 0.00 0.00 0.00 82 1016.6
20260504205033 56 222 0.0 0.0 0.00 0.00 0.00 82 1016.5
20260504204515 56 222 0.0 0.0 0.00 0.00 0.00 82 1016.5
20260504204037 56 222 0.0 0.0 0.00 0.00 0.00 82 1016.5
20260504203521 56 222 0.0 0.0 0.00 0.00 0.00 82 1016.5
20260504203014 56 222 0.0 0.0 0.00 0.00 0.00 82 1016.5
20260504202540 56 222 0.0 0.0 0.00 0.00 0.00 82 1016.6
20260504202020 56 222 0.0 0.0 0.00 0.00 0.00 82 1016.5
20260504201523 57 222 0.0 0.0 0.00 0.00 0.00 81 1016.5
20260504201023 57 222 0.0 0.0 0.00 0.00 0.00 81 1016.6
20260504200531 57 222 0.0 0.0 0.00 0.00 0.00 81 1016.5
20260504200024 57 222 0.0 0.0 0.00 0.00 0.00 81 1016.5
20260504195525 57 222 0.0 0.0 0.00 0.00 0.00 81 1016.4
20260504195024 57 222 0.0 1.0 0.00 0.00 0.00 81 1016.4
20260504194527 58 222 0.0 1.0 0.00 0.00 0.00 80 1016.4
20260504194026 58 222 0.0 0.0 0.00 0.00 0.00 80 1016.4
20260504193549 58 222 0.0 1.0 0.00 0.00 0.00 80 1016.3
20260504193019 58 222 0.0 1.0 0.00 0.00 0.00 80 1016.3
20260504192521 59 222 0.0 1.0 0.00 0.00 0.00 79 1016.2
20260504192020 59 222 0.0 1.0 0.00 0.00 0.00 79 1016.2
20260504191522 59 222 0.0 1.0 0.00 0.00 0.00 78 1016.2
20260504191021 60 222 0.0 1.0 0.00 0.00 0.00 78 1016.1
20260504190546 60 222 0.0 0.0 0.00 0.00 0.00 78 1016.0
20260504190018 60 222 0.0 1.0 0.00 0.00 0.00 77 1016.0
20260504185521 60 222 0.0 1.0 0.00 0.00 0.00 77 1016.0
20260504185025 61 222 0.0 0.0 0.00 0.00 0.00 76 1015.9
20260504184529 61 222 0.0 0.0 0.00 0.00 0.00 76 1015.9
20260504184031 61 222 0.0 1.0 0.00 0.00 0.00 76 1015.8
20260504183516 62 222 0.0 2.0 0.00 0.00 0.00 75 1015.8
20260504183030 62 222 0.0 2.0 0.00 0.00 0.00 74 1015.7
20260504182518 63 222 0.0 1.0 0.00 0.00 0.00 73 1015.7
20260504182021 63 222 0.0 1.0 0.00 0.00 0.00 72 1015.6
20260504181527 63 222 0.0 1.0 0.00 0.00 0.00 72 1015.6
20260504181029 64 222 0.0 1.0 0.00 0.00 0.00 71 1015.5
20260504180515 64 222 0.0 2.0 0.00 0.00 0.00 72 1015.5
20260504180014 64 222 1.0 3.0 0.00 0.00 0.00 71 1015.4
20260504175539 65 222 0.0 3.0 0.00 0.00 0.00 71 1015.3
20260504175023 65 222 1.0 3.0 0.00 0.00 0.00 69 1015.2
20260504174527 65 222 1.0 3.0 0.00 0.00 0.00 69 1015.2
20260504174029 66 222 0.0 2.0 0.00 0.00 0.00 69 1015.2
20260504173553 66 222 1.0 2.0 0.00 0.00 0.00 69 1015.2
20260504173024 67 222 0.0 1.0 0.00 0.00 0.00 68 1015.2
20260504172527 67 222 0.0 1.0 0.00 0.00 0.00 68 1015.2
20260504172027 67 222 0.0 0.0 0.00 0.00 0.00 67 1015.2
20260504171524 68 222 0.0 2.0 0.00 0.00 0.00 65 1015.2
20260504171024 68 222 1.0 2.0 0.00 0.00 0.00 67 1015.2
20260504170530 68 222 1.0 2.0 0.00 0.00 0.00 65 1015.2
20260504151018 75 200 4.0 8.0 0.00 0.00 0.00 46 1015.5
20260504150540 75 207 2.0 6.0 0.00 0.00 0.00 46 1015.4
20260504141018 76 209 2.0 9.0 0.00 0.00 0.00 41 1015.7
20260504140545 76 221 2.0 9.0 0.00 0.00 0.00 42 1015.6
20260504130520 77 221 3.0 8.0 0.00 0.00 0.00 40 1016.1
20260504110520 78 207 3.0 10.0 0.00 0.00 0.00 37 1016.5
20260504100542 77 198 1.0 12.0 0.00 0.00 0.00 34 1017.0
20260504081529 67 46 3.0 5.0 0.00 0.00 0.00 60 1017.4
20260504081030 67 53 3.0 5.0 0.00 0.00 0.00 61 1017.4
20260504080514 66 53 3.0 5.0 0.00 0.00 0.00 62 1017.4
20260504050526 48 251 2.0 4.0 0.00 0.00 0.00 85 1017.6
20260504050020 48 250 2.0 4.0 0.00 0.00 0.00 86 1017.6
20260504045522 48 249 1.0 4.0 0.00 0.00 0.00 86 1017.6
20260504045025 48 248 2.0 4.0 0.00 0.00 0.00 87 1017.5
20260504044550 47 248 1.0 3.0 0.00 0.00 0.00 87 1017.5
20260504044028 47 248 0.0 3.0 0.00 0.00 0.00 87 1017.6
20260504043529 47 248 1.0 4.0 0.00 0.00 0.00 87 1017.5
20260504043018 47 247 1.0 2.0 0.00 0.00 0.00 86 1017.5
20260504042521 47 247 0.0 3.0 0.00 0.00 0.00 87 1017.4
20260504042040 47 247 1.0 3.0 0.00 0.00 0.00 86 1017.4
20260504041543 47 247 1.0 3.0 0.00 0.00 0.00 86 1017.4
20260504041042 47 247 2.0 3.0 0.00 0.00 0.00 86 1017.4
20260504040522 47 247 1.0 3.0 0.00 0.00 0.00 86 1017.4
20260504040013 47 247 2.0 3.0 0.00 0.00 0.00 86 1017.4
20260504035537 47 247 0.0 2.0 0.00 0.00 0.00 86 1017.4
20260504035016 47 247 1.0 2.0 0.00 0.00 0.00 85 1017.4
20260504034520 47 247 0.0 1.0 0.00 0.00 0.00 86 1017.4
20260504034020 47 247 0.0 1.0 0.00 0.00 0.00 85 1017.4
20260504033525 47 247 0.0 2.0 0.00 0.00 0.00 85 1017.4
20260504033015 48 247 0.0 3.0 0.00 0.00 0.00 85 1017.4
20260504032538 48 247 1.0 4.0 0.00 0.00 0.00 85 1017.4
20260504032018 48 246 2.0 4.0 0.00 0.00 0.00 85 1017.3
20260504031520 48 246 1.0 3.0 0.00 0.00 0.00 85 1017.3
20260504031018 48 246 1.0 3.0 0.00 0.00 0.00 85 1017.3
20260504030520 48 246 1.0 3.0 0.00 0.00 0.00 85 1017.3
20260504030031 48 246 0.0 3.0 0.00 0.00 0.00 85 1017.3
20260504025514 48 246 0.0 2.0 0.00 0.00 0.00 85 1017.2
20260504025036 48 246 1.0 2.0 0.00 0.00 0.00 84 1017.4
20260504024521 48 246 1.0 2.0 0.00 0.00 0.00 84 1017.4
20260504024021 48 246 0.0 3.0 0.00 0.00 0.00 84 1017.5
20260504023524 48 246 1.0 5.0 0.00 0.00 0.00 84 1017.6
20260504023016 48 246 1.0 5.0 0.00 0.00 0.00 84 1017.6
20260504022540 48 245 1.0 5.0 0.00 0.00 0.00 84 1017.6
20260504022021 48 245 2.0 5.0 0.00 0.00 0.00 84 1017.6
20260504021523 48 244 1.0 4.0 0.00 0.00 0.00 84 1017.6
20260504021023 48 244 1.0 2.0 0.00 0.00 0.00 84 1017.5
20260504020549 49 244 0.0 3.0 0.00 0.00 0.00 84 1017.5
20260504020020 49 244 1.0 3.0 0.00 0.00 0.00 84 1017.5
20260504015523 49 244 1.0 3.0 0.00 0.00 0.00 84 1017.5
20260504015044 49 244 1.0 2.0 0.00 0.00 0.00 84 1017.5
20260504014528 49 244 1.0 2.0 0.00 0.00 0.00 83 1017.5
20260504014030 49 244 0.0 2.0 0.00 0.00 0.00 83 1017.5
20260504013532 49 244 0.0 3.0 0.00 0.00 0.00 83 1017.6
20260504013025 49 244 1.0 3.0 0.00 0.00 0.00 83 1017.5
20260504012527 49 244 1.0 3.0 0.00 0.00 0.00 83 1017.5
20260504012049 49 244 1.0 4.0 0.00 0.00 0.00 83 1017.5
20260504011517 49 244 1.0 5.0 0.00 0.00 0.00 83 1017.5
20260504011037 49 243 2.0 5.0 0.00 0.00 0.00 83 1017.5
20260504010518 49 242 2.0 4.0 0.00 0.00 0.00 83 1017.4
20260504010027 50 241 0.0 1.0 0.00 0.00 0.00 82 1017.5
20260504005530 50 241 0.0 1.0 0.00 0.00 0.00 82 1017.5
20260504005053 50 241 0.0 1.0 0.00 0.00 0.00 82 1017.5
20260504004516 50 241 0.0 1.0 0.00 0.00 0.00 82 1017.5
20260504004018 50 241 0.0 2.0 0.00 0.00 0.00 82 1017.5
20260504003520 50 241 1.0 3.0 0.00 0.00 0.00 82 1017.5
20260504003029 50 241 1.0 4.0 0.00 0.00 0.00 82 1017.5
20260504002553 50 241 1.0 5.0 0.00 0.00 0.00 82 1017.6
20260504002032 50 241 2.0 5.0 0.00 0.00 0.00 82 1017.5
20260504001515 50 240 1.0 3.0 0.00 0.00 0.00 82 1017.5
20260504001015 50 240 0.0 1.0 0.00 0.00 0.00 82 1017.5
20260504000519 50 240 0.0 2.0 0.00 0.00 0.00 82 1017.5
20260504000054 50 240 0.0 2.0 0.00 0.00 0.00 82 1017.5
20260503235516 50 240 0.0 3.0 0.00 0.00 0.00 81 1017.5
20260503235017 50 240 1.0 4.0 0.00 0.00 0.00 81 1017.5
20260503234521 50 240 0.0 4.0 0.00 0.00 0.00 81 1017.5
20260503234025 50 239 1.0 4.0 0.00 0.00 0.00 81 1017.6
20260503233530 50 238 2.0 4.0 0.00 0.00 0.00 81 1017.6
20260503233018 50 238 1.0 3.0 0.00 0.00 0.00 81 1017.6
20260503232542 50 238 1.0 2.0 0.00 0.00 0.00 81 1017.6
20260503232020 50 238 0.0 2.0 0.00 0.00 0.00 81 1017.6
20260503231544 50 238 0.0 2.0 0.00 0.00 0.00 81 1017.6
20260503231022 50 238 0.0 4.0 0.00 0.00 0.00 81 1017.5
20260503230523 51 238 1.0 4.0 0.00 0.00 0.00 81 1017.5
20260503230015 51 237 1.0 4.0 0.00 0.00 0.00 81 1017.5
20260503225518 51 237 3.0 4.0 0.00 0.00 0.00 81 1017.5
20260503225035 51 236 1.0 2.0 0.00 0.00 0.00 81 1017.5
20260503224515 51 236 0.0 3.0 0.00 0.00 0.00 81 1017.5
20260503224014 51 236 1.0 4.0 0.00 0.00 0.00 81 1017.5